| time (UTC) | temp F | wind direction | speed MPH | gust MPH | rain 1hr in | rain 24hr in | rain mn in | humidity % | barometer mb |
| 20260506171551 | 63 | 235 | 0.0 | 4.0 | 0.00 | 0.19 | 0.19 | 87 | 1007.8 |
| 20260506170058 | 63 | 0 | 0.0 | 3.0 | 0.00 | 0.19 | 0.19 | 88 | 1008.0 |
| 20260506164606 | 63 | 271 | 0.0 | 2.0 | 0.00 | 0.19 | 0.19 | 86 | 1007.6 |
| 20260506163047 | 63 | 0 | 0.0 | 3.0 | 0.00 | 0.19 | 0.19 | 86 | 1007.7 |
| 20260506161546 | 63 | 217 | 1.0 | 5.0 | 0.00 | 0.19 | 0.19 | 84 | 1007.6 |
| 20260506160050 | 63 | 181 | 2.0 | 6.0 | 0.00 | 0.19 | 0.19 | 85 | 1007.5 |
| 20260506154551 | 63 | 228 | 2.0 | 8.0 | 0.00 | 0.19 | 0.19 | 85 | 1007.5 |
| 20260506153045 | 62 | 225 | 2.0 | 6.0 | 0.00 | 0.19 | 0.19 | 87 | 1007.5 |
| 20260506151549 | 62 | 213 | 2.0 | 7.0 | 0.00 | 0.19 | 0.19 | 88 | 1007.6 |
| 20260506150051 | 61 | 229 | 3.0 | 8.0 | 0.01 | 0.19 | 0.19 | 88 | 1007.4 |
| 20260506144549 | 61 | 230 | 5.0 | 9.0 | 0.03 | 0.19 | 0.19 | 89 | 1007.8 |
| 20260506143046 | 60 | 167 | 2.0 | 6.0 | 0.07 | 0.19 | 0.19 | 90 | 1007.4 |
| 20260506141606 | 60 | 172 | 0.0 | 5.0 | 0.08 | 0.19 | 0.19 | 91 | 1007.5 |
| 20260506140048 | 59 | 149 | 0.0 | 4.0 | 0.07 | 0.18 | 0.18 | 90 | 1007.8 |
| 20260506134545 | 59 | 146 | 0.0 | 7.0 | 0.08 | 0.16 | 0.16 | 90 | 1008.1 |
| 20260506133046 | 59 | 233 | 3.0 | 5.0 | 0.06 | 0.12 | 0.12 | 89 | 1008.1 |
| 20260506131548 | 59 | 0 | 1.0 | 4.0 | 0.07 | 0.11 | 0.11 | 89 | 1007.8 |
| 20260506130048 | 59 | 161 | 1.0 | 4.0 | 0.08 | 0.11 | 0.11 | 89 | 1007.7 |
| 20260506124548 | 59 | 175 | 0.0 | 2.0 | 0.05 | 0.08 | 0.08 | 89 | 1007.9 |
| 20260506123049 | 59 | 217 | 0.0 | 2.0 | 0.04 | 0.06 | 0.06 | 88 | 1008.0 |
| 20260506121555 | 59 | 0 | 1.0 | 3.0 | 0.03 | 0.04 | 0.04 | 87 | 1008.0 |
| 20260506120107 | 59 | 181 | 1.0 | 5.0 | 0.02 | 0.03 | 0.03 | 87 | 1007.9 |
| 20260506114544 | 59 | 199 | 1.0 | 3.0 | 0.03 | 0.03 | 0.03 | 86 | 1007.9 |
| 20260506113048 | 60 | 0 | 0.0 | 1.0 | 0.02 | 0.02 | 0.02 | 82 | 1008.0 |
| 20260506111549 | 60 | 0 | 1.0 | 3.0 | 0.01 | 0.01 | 0.01 | 81 | 1008.1 |
| 20260506110044 | 61 | 0 | 0.0 | 1.0 | 0.01 | 0.01 | 0.01 | 77 | 1008.1 |
| 20260506104547 | 62 | 209 | 0.0 | 2.0 | 0.00 | 0.00 | 0.00 | 74 | 1007.8 |
| 20260506103046 | 62 | 186 | 0.0 | 7.0 | 0.00 | 0.00 | 0.00 | 70 | 1007.5 |
| 20260506101549 | 61 | 211 | 0.0 | 2.0 | 0.00 | 0.00 | 0.00 | 70 | 1007.0 |
| 20260506100046 | 61 | 0 | 0.0 | 0.0 | 0.00 | 0.00 | 0.00 | 69 | 1006.8 |
| 20260506094549 | 62 | 0 | 0.0 | 0.0 | 0.00 | 0.00 | 0.00 | 68 | 1006.7 |
| 20260506093049 | 61 | 209 | 0.0 | 3.0 | 0.00 | 0.00 | 0.00 | 67 | 1006.7 |
| 20260506091547 | 62 | 0 | 0.0 | 2.0 | 0.00 | 0.00 | 0.00 | 67 | 1006.7 |
| 20260506090052 | 62 | 211 | 0.0 | 2.0 | 0.00 | 0.00 | 0.00 | 66 | 1007.0 |
| 20260506084552 | 62 | 211 | 0.0 | 2.0 | 0.00 | 0.00 | 0.00 | 66 | 1007.0 |
| 20260506083050 | 62 | 211 | 1.0 | 3.0 | 0.00 | 0.00 | 0.00 | 66 | 1007.2 |
| 20260506081554 | 62 | 0 | 1.0 | 3.0 | 0.00 | 0.00 | 0.00 | 64 | 1007.4 |
| 20260506073057 | 63 | 0 | 0.0 | 2.0 | 0.00 | 0.00 | 0.00 | 63 | 1007.1 |
| 20260506071553 | 63 | 211 | 0.0 | 3.0 | 0.00 | 0.00 | 0.00 | 61 | 1007.3 |
| 20260506070108 | 64 | 0 | 0.0 | 0.0 | 0.00 | 0.00 | 0.00 | 60 | 1007.4 |
| 20260506061549 | 65 | 0 | 0.0 | 1.0 | 0.00 | 0.00 | 0.00 | 58 | 1008.0 |
| 20260506044555 | 68 | 150 | 1.0 | 3.0 | 0.00 | 0.00 | 0.00 | 50 | 1008.9 |
| 20260506043050 | 69 | 0 | 0.0 | 1.0 | 0.00 | 0.00 | 0.00 | 48 | 1008.8 |
| 20260506041554 | 69 | 0 | 1.0 | 5.0 | 0.00 | 0.00 | 0.00 | 45 | 1008.7 |
| 20260506040050 | 69 | 164 | 1.0 | 5.0 | 0.00 | 0.00 | 0.00 | 44 | 1008.8 |
| 20260506034543 | 70 | 127 | 0.0 | 6.0 | 0.00 | 0.00 | 0.00 | 43 | 1008.8 |
| 20260506033046 | 70 | 161 | 2.0 | 7.0 | 0.00 | 0.00 | 0.00 | 42 | 1008.7 |
| 20260506031558 | 70 | 159 | 3.0 | 10.0 | 0.00 | 0.00 | 0.00 | 42 | 1008.8 |
| 20260506030108 | 70 | 171 | 4.0 | 8.0 | 0.00 | 0.00 | 0.00 | 43 | 1008.7 |
| 20260506024547 | 70 | 147 | 2.0 | 5.0 | 0.00 | 0.00 | 0.00 | 44 | 1008.7 |
| 20260506023049 | 69 | 171 | 2.0 | 7.0 | 0.00 | 0.00 | 0.00 | 44 | 1008.8 |
| 20260506021543 | 69 | 171 | 2.0 | 8.0 | 0.00 | 0.00 | 0.00 | 46 | 1008.8 |
| 20260506020041 | 67 | 162 | 1.0 | 4.0 | 0.00 | 0.00 | 0.00 | 50 | 1008.7 |
| 20260506014542 | 67 | 159 | 2.0 | 6.0 | 0.00 | 0.00 | 0.00 | 52 | 1008.7 |
| 20260506013050 | 67 | 146 | 2.0 | 6.0 | 0.00 | 0.00 | 0.00 | 54 | 1008.7 |
| 20260506011555 | 68 | 169 | 1.0 | 5.0 | 0.00 | 0.00 | 0.00 | 51 | 1008.6 |
| 20260506010054 | 69 | 0 | 1.0 | 4.0 | 0.00 | 0.00 | 0.00 | 49 | 1008.3 |
| 20260506004626 | 70 | 0 | 0.0 | 5.0 | 0.00 | 0.00 | 0.00 | 46 | 1008.3 |
| 20260506003052 | 72 | 215 | 2.0 | 5.0 | 0.00 | 0.00 | 0.00 | 44 | 1008.1 |
| 20260506001600 | 73 | 190 | 0.0 | 2.0 | 0.00 | 0.00 | 0.00 | 42 | 1007.8 |
| 20260506000101 | 75 | 0 | 0.0 | 2.0 | 0.00 | 0.00 | 0.00 | 40 | 1007.9 |
| 20260505234609 | 76 | 0 | 0.0 | 2.0 | 0.00 | 0.00 | 0.00 | 37 | 1007.7 |
| 20260505233047 | 78 | 0 | 0.0 | 4.0 | 0.00 | 0.00 | 0.00 | 36 | 1007.6 |
| 20260505231549 | 78 | 286 | 3.0 | 8.0 | 0.00 | 0.00 | 0.00 | 32 | 1007.5 |
| 20260505230050 | 79 | 238 | 4.0 | 12.0 | 0.00 | 0.00 | 0.00 | 30 | 1007.3 |
| 20260505224546 | 80 | 227 | 5.0 | 11.0 | 0.00 | 0.00 | 0.00 | 30 | 1007.3 |
| 20260505223058 | 81 | 219 | 8.0 | 16.0 | 0.00 | 0.00 | 0.00 | 30 | 1007.4 |
| 20260505221605 | 81 | 242 | 6.0 | 20.0 | 0.00 | 0.00 | 0.00 | 29 | 1007.2 |
| 20260505220117 | 81 | 236 | 5.0 | 9.0 | 0.00 | 0.00 | 0.00 | 30 | 1007.1 |
| 20260505214604 | 81 | 242 | 4.0 | 14.0 | 0.00 | 0.00 | 0.00 | 30 | 1007.0 |
| 20260505213049 | 82 | 240 | 6.0 | 20.0 | 0.00 | 0.00 | 0.00 | 30 | 1007.0 |
| 20260505211559 | 82 | 205 | 8.0 | 18.0 | 0.00 | 0.00 | 0.00 | 29 | 1007.1 |
| 20260505210046 | 83 | 205 | 7.0 | 17.0 | 0.00 | 0.00 | 0.00 | 28 | 1007.0 |
| 20260505204550 | 84 | 211 | 7.0 | 20.0 | 0.00 | 0.00 | 0.00 | 26 | 1006.9 |
| 20260505203044 | 85 | 192 | 8.0 | 20.0 | 0.00 | 0.00 | 0.00 | 27 | 1006.8 |
| 20260505201601 | 85 | 188 | 4.0 | 17.0 | 0.00 | 0.00 | 0.00 | 27 | 1006.9 |
| 20260505200100 | 85 | 149 | 6.0 | 19.0 | 0.00 | 0.00 | 0.00 | 22 | 1007.0 |
| 20260505194555 | 84 | 203 | 5.0 | 21.0 | 0.00 | 0.00 | 0.00 | 23 | 1007.2 |
| 20260505193046 | 84 | 271 | 4.0 | 20.0 | 0.00 | 0.00 | 0.00 | 23 | 1007.5 |
| 20260505191543 | 83 | 162 | 13.0 | 30.0 | 0.00 | 0.00 | 0.00 | 23 | 1007.7 |
| 20260505190051 | 83 | 234 | 11.0 | 24.0 | 0.00 | 0.00 | 0.00 | 25 | 1008.0 |
| 20260505184549 | 83 | 225 | 9.0 | 25.0 | 0.00 | 0.00 | 0.00 | 25 | 1008.3 |
| 20260505183049 | 84 | 209 | 9.0 | 22.0 | 0.00 | 0.00 | 0.00 | 25 | 1008.4 |
| 20260505181549 | 83 | 169 | 9.0 | 29.0 | 0.00 | 0.00 | 0.00 | 25 | 1008.6 |
| 20260505180048 | 82 | 213 | 6.0 | 18.0 | 0.00 | 0.00 | 0.00 | 27 | 1008.7 |
| 20260505174548 | 81 | 223 | 11.0 | 25.0 | 0.00 | 0.00 | 0.00 | 28 | 1009.0 |
| 20260505173053 | 82 | 190 | 6.0 | 26.0 | 0.00 | 0.00 | 0.00 | 27 | 1008.9 |